SCP
0 0 0 0 0 0 0 0 0 0 0 0 0 0 0 0 0 0 0 0 0 0
0 0 0 0 0 0 0 0 0 0 0 0 0 0 0 0 0 0 0 0 0 0
0 0 0 0 0 0 0 0 0 0 0 0 0 0 0 0 0 0 0 0 0 0
0 0 0 0 0 0 0 0 0 0 0 0 0 0 0 0 0 0 0 0 0 0
0 0 0 0 0 0 0 0 0 0 0 0 0 0 0 0 0 0 0 0 0 0
0 0 0 0 0 0 0 0 0 0 0 0 0 0 0 0 0 0 0 0 0 0
0 0 0 0 0 0 0 0 0 0 0 0 0 0 0 0 0 0 0 0 0 0
0 0 0 0 0 0 0 0 0 0 0 0 0 0 0 0 0 0 0 0 0 0
0 0 0 0 0 0 0 0 0 0 0 0 0 0 0 0 0 0 0 0 0 0
0 0 0 0 0 0 0 0 0 0 0 0 0 0 0 0 0 0 0 0 0 0
0 0 0 0 0 0 0 0 0 0 0 0 0 0 0 0 0 0 0 0 0 0
0 0 0 0 0 0 0 0 0 0 0 0 0 0 0 0 0 0 0 0 0 0
0 0 0 0 0 0 0 0 0 0 0 0 0 0 0 0 0 0 0 0 0 0
0 0 0 0 0 0 0 0 0 0 0 0 0 0 0 0 0 0 0 0 0 0
Wind_Speed_500mb
74 74 69 66 68 70 69 70 76 81 77 68 66 72 72 74 75 71 66 63 56 51
76 73 69 64 63 69 69 73 79 80 80 72 72 73 75 76 74 71 65 60 56 52
69 68 65 63 65 72 78 74 79 88 79 79 78 78 81 79 74 71 68 63 59 51
64 64 64 62 61 69 73 75 84 86 85 83 84 83 82 78 75 72 68 64 57 49
60 61 66 66 64 68 73 75 79 85 88 87 84 86 86 83 79 75 72 65 56 46
63 64 66 68 66 68 74 75 80 85 92 90 89 89 87 80 76 73 67 59 51 43
68 67 64 68 69 69 71 75 81 88 93 93 91 90 89 83 77 72 66 58 48 38
64 68 63 69 72 72 73 75 77 85 93 96 96 95 93 86 81 73 67 59 52 37
66 68 67 66 73 73 72 74 79 84 92 97 101 96 92 85 79 74 68 63 52 40
66 66 67 63 70 76 74 73 74 78 86 97 101 98 94 84 78 73 68 62 53 38
64 65 65 68 73 77 78 73 74 79 85 95 101 99 94 85 79 73 69 63 47 37
55 61 63 67 72 74 74 75 71 77 83 93 99 94 92 86 80 73 70 63 48 57
42 48 53 55 61 64 70 70 68 73 78 87 86 83 89 86 81 76 75 64 64 67
28 29 35 41 48 53 57 59 56 63 66 70 72 79 85 84 82 76 77 74 81 76
Wind_Direction_500mb
235 239 238 238 230 228 234 231 232 221 221 226 229 222 216 213 212 214 218 222 221 223
235 237 239 237 229 227 230 235 230 233 222 222 218 220 212 211 212 215 217 218 219 219
238 239 238 234 231 230 233 234 233 233 220 220 219 216 212 212 213 214 215 214 214 214
236 239 236 234 232 232 234 240 236 226 225 220 219 215 213 213 213 213 213 210 210 209
234 239 235 233 230 228 235 237 231 227 224 219 216 214 214 213 212 212 210 210 207 205
235 238 237 232 230 229 234 235 232 230 227 222 216 217 216 214 215 212 212 211 208 202
239 240 244 234 231 229 231 231 233 231 229 222 219 218 217 213 212 211 209 205 200 193
245 242 247 238 234 235 235 238 239 233 227 222 216 220 218 215 211 210 206 199 191 204
248 245 246 242 238 238 241 242 239 233 228 221 218 220 217 216 213 209 207 201 197 212
252 247 246 244 241 241 241 245 245 239 233 226 224 219 219 215 214 212 207 201 211 228
253 249 245 243 241 242 243 243 247 245 238 231 224 219 218 216 213 211 208 208 220 257
253 251 246 243 242 243 245 245 244 247 241 232 225 219 220 217 214 211 208 215 231 261
252 252 251 248 246 245 246 246 244 244 243 234 223 220 224 220 217 214 212 222 248 259
242 241 242 240 241 244 246 248 246 249 246 238 218 219 224 226 224 223 222 237 248 253
Wind_Speed_850mb
74 74 69 66 68 70 69 70 76 81 77 68 66 72 72 74 75 71 66 63 56 51
76 73 69 64 63 69 69 73 79 80 80 72 72 73 75 76 74 71 65 60 56 52
69 68 65 63 65 72 78 74 79 88 79 79 78 78 81 79 74 71 68 63 59 51
64 64 64 62 61 69 73 75 84 86 85 83 84 83 82 78 75 72 68 64 57 49
60 61 66 66 64 68 73 75 79 85 88 87 84 86 86 83 79 75 72 65 56 46
63 64 66 68 66 68 74 75 80 85 92 90 89 89 87 80 76 73 67 59 51 43
68 67 64 68 69 69 71 75 81 88 93 93 91 90 89 83 77 72 66 58 48 38
64 68 63 69 72 72 73 75 77 85 93 96 96 95 93 86 81 73 67 59 52 37
66 68 67 66 73 73 72 74 79 84 92 97 101 96 92 85 79 74 68 63 52 40
66 66 67 63 70 76 74 73 74 78 86 97 101 98 94 84 78 73 68 62 53 38
64 65 65 68 73 77 78 73 74 79 85 95 101 99 94 85 79 73 69 63 47 37
55 61 63 67 72 74 74 75 71 77 83 93 99 94 92 86 80 73 70 63 48 57
42 48 53 55 61 64 70 70 68 73 78 87 86 83 89 86 81 76 75 64 64 67
28 29 35 41 48 53 57 59 56 63 66 70 72 79 85 84 82 76 77 74 81 76
Wind_Direction_850mb
235 239 238 238 230 228 234 231 232 221 221 226 229 222 216 213 212 214 218 222 221 223
235 237 239 237 229 227 230 235 230 233 222 222 218 220 212 211 212 215 217 218 219 219
238 239 238 234 231 230 233 234 233 233 220 220 219 216 212 212 213 214 215 214 214 214
236 239 236 234 232 232 234 240 236 226 225 220 219 215 213 213 213 213 213 210 210 209
234 239 235 233 230 228 235 237 231 227 224 219 216 214 214 213 212 212 210 210 207 205
235 238 237 232 230 229 234 235 232 230 227 222 216 217 216 214 215 212 212 211 208 202
239 240 244 234 231 229 231 231 233 231 229 222 219 218 217 213 212 211 209 205 200 193
245 242 247 238 234 235 235 238 239 233 227 222 216 220 218 215 211 210 206 199 191 204
248 245 246 242 238 238 241 242 239 233 228 221 218 220 217 216 213 209 207 201 197 212
252 247 246 244 241 241 241 245 245 239 233 226 224 219 219 215 214 212 207 201 211 228
253 249 245 243 241 242 243 243 247 245 238 231 224 219 218 216 213 211 208 208 220 257
253 251 246 243 242 243 245 245 244 247 241 232 225 219 220 217 214 211 208 215 231 261
252 252 251 248 246 245 246 246 244 244 243 234 223 220 224 220 217 214 212 222 248 259
242 241 242 240 241 244 246 248 246 249 246 238 218 219 224 226 224 223 222 237 248 253